| time (UTC) | temp C | wind direction | speed KPH | gust KPH | rain 1hr cm | rain 24hr cm | rain mn cm | humidity % | barometer mb |
| 20260508030100 | 27 | 215 | 4.8 | 16.1 | 0.00 | 0.00 | 0.00 | 75 | 1011.9 |
| 20260508024556 | 27 | 254 | 8.0 | 20.9 | 0.00 | 0.00 | 0.00 | 73 | 1011.9 |
| 20260508023055 | 27 | 302 | 6.4 | 19.3 | 0.00 | 0.00 | 0.00 | 70 | 1012.0 |
| 20260508021557 | 27 | 247 | 6.4 | 16.1 | 0.00 | 0.00 | 0.00 | 69 | 1011.7 |
| 20260508020100 | 28 | 297 | 8.0 | 19.3 | 0.00 | 0.00 | 0.00 | 67 | 1011.5 |
| 20260508014557 | 28 | 264 | 4.8 | 17.7 | 0.00 | 0.00 | 0.00 | 64 | 1011.5 |
| 20260508013052 | 28 | 297 | 6.4 | 14.5 | 0.00 | 0.00 | 0.00 | 63 | 1011.4 |
| 20260508011554 | 28 | 254 | 3.2 | 9.7 | 0.00 | 0.00 | 0.00 | 62 | 1011.2 |
| 20260508010053 | 28 | 265 | 3.2 | 6.4 | 0.00 | 0.00 | 0.00 | 61 | 1010.8 |
| 20260508004557 | 29 | 268 | 1.6 | 6.4 | 0.00 | 0.00 | 0.00 | 60 | 1010.8 |
| 20260508003053 | 29 | 267 | 4.8 | 14.5 | 0.00 | 0.00 | 0.00 | 58 | 1010.7 |
| 20260508001556 | 30 | 286 | 3.2 | 11.3 | 0.00 | 0.00 | 0.00 | 57 | 1010.6 |
| 20260508000053 | 30 | 288 | 3.2 | 11.3 | 0.00 | 0.00 | 0.00 | 56 | 1010.7 |
| 20260507234550 | 30 | 298 | 4.8 | 14.5 | 0.00 | 0.00 | 0.00 | 54 | 1010.7 |
| 20260507233055 | 30 | 283 | 3.2 | 14.5 | 0.00 | 0.00 | 0.00 | 53 | 1010.8 |
| 20260507231556 | 31 | 292 | 4.8 | 11.3 | 0.00 | 0.00 | 0.00 | 53 | 1010.1 |
| 20260507230105 | 31 | 290 | 4.8 | 14.5 | 0.00 | 0.00 | 0.00 | 53 | 1010.2 |
| 20260507224559 | 31 | 288 | 6.4 | 16.1 | 0.00 | 0.00 | 0.00 | 52 | 1010.1 |
| 20260507223053 | 31 | 292 | 8.0 | 22.5 | 0.00 | 0.00 | 0.00 | 52 | 1009.9 |
| 20260507221556 | 31 | 232 | 8.0 | 20.9 | 0.00 | 0.00 | 0.00 | 54 | 1009.9 |
| 20260507220058 | 31 | 281 | 6.4 | 20.9 | 0.00 | 0.00 | 0.00 | 58 | 1010.0 |
| 20260507214605 | 30 | 234 | 8.0 | 24.1 | 0.00 | 0.00 | 0.00 | 60 | 1009.9 |
| 20260507213057 | 29 | 190 | 9.7 | 25.7 | 0.00 | 0.00 | 0.00 | 62 | 1009.4 |
| 20260507211556 | 29 | 242 | 6.4 | 17.7 | 0.00 | 0.00 | 0.00 | 62 | 1009.4 |
| 20260507204552 | 28 | 223 | 4.8 | 19.3 | 0.00 | 0.00 | 0.00 | 65 | 1010.7 |
| 20260507203109 | 28 | 312 | 4.8 | 20.9 | 0.00 | 0.00 | 0.00 | 66 | 1011.4 |
| 20260507201600 | 28 | 290 | 6.4 | 20.9 | 0.00 | 0.00 | 0.00 | 66 | 1011.4 |
| 20260507200106 | 28 | 242 | 9.7 | 16.1 | 0.00 | 0.00 | 0.00 | 65 | 1011.5 |
| 20260507194552 | 29 | 275 | 8.0 | 24.1 | 0.00 | 0.00 | 0.00 | 65 | 1011.7 |
| 20260507193058 | 29 | 300 | 8.0 | 19.3 | 0.00 | 0.00 | 0.00 | 64 | 1011.8 |
| 20260507191552 | 28 | 262 | 8.0 | 30.6 | 0.00 | 0.00 | 0.00 | 65 | 1012.4 |
| 20260507190058 | 28 | 280 | 6.4 | 24.1 | 0.00 | 0.00 | 0.00 | 67 | 1012.8 |
| 20260507184600 | 28 | 5 | 9.7 | 24.1 | 0.00 | 0.00 | 0.00 | 66 | 1012.9 |
| 20260507183101 | 30 | 310 | 6.4 | 22.5 | 0.00 | 0.00 | 0.00 | 63 | 1013.0 |
| 20260507181601 | 30 | 334 | 6.4 | 19.3 | 0.00 | 0.00 | 0.00 | 64 | 1013.3 |
| 20260507180057 | 30 | 311 | 6.4 | 17.7 | 0.00 | 0.00 | 0.00 | 62 | 1013.3 |
| 20260507174557 | 30 | 267 | 8.0 | 24.1 | 0.00 | 0.00 | 0.00 | 54 | 1013.6 |
| 20260507173102 | 30 | 304 | 4.8 | 14.5 | 0.00 | 0.00 | 0.00 | 54 | 1013.8 |
| 20260507171604 | 30 | 296 | 8.0 | 17.7 | 0.00 | 0.00 | 0.00 | 55 | 1013.8 |
| 20260507164603 | 31 | 250 | 9.7 | 17.7 | 0.00 | 0.00 | 0.00 | 56 | 1014.0 |
| 20260507163059 | 30 | 297 | 6.4 | 17.7 | 0.00 | 0.00 | 0.00 | 59 | 1014.1 |
| 20260507161555 | 30 | 251 | 9.7 | 25.7 | 0.00 | 0.00 | 0.00 | 63 | 1014.1 |
| 20260507160056 | 30 | 330 | 6.4 | 19.3 | 0.00 | 0.00 | 0.00 | 64 | 1014.0 |
| 20260507154556 | 30 | 300 | 8.0 | 24.1 | 0.00 | 0.00 | 0.00 | 64 | 1014.4 |
| 20260507153050 | 30 | 299 | 9.7 | 19.3 | 0.00 | 0.00 | 0.00 | 64 | 1014.1 |
| 20260507151550 | 29 | 292 | 4.8 | 12.9 | 0.00 | 0.00 | 0.00 | 67 | 1014.0 |
| 20260507150051 | 28 | 250 | 3.2 | 6.4 | 0.00 | 0.00 | 0.00 | 70 | 1013.8 |
| 20260507144555 | 27 | 219 | 3.2 | 8.0 | 0.00 | 0.00 | 0.00 | 71 | 1013.5 |
| 20260507143058 | 27 | 229 | 3.2 | 9.7 | 0.00 | 0.00 | 0.00 | 73 | 1013.4 |
| 20260507141555 | 27 | 227 | 3.2 | 12.9 | 0.00 | 0.00 | 0.00 | 75 | 1013.6 |
| 20260507140049 | 26 | 240 | 3.2 | 11.3 | 0.00 | 0.00 | 0.00 | 77 | 1013.6 |
| 20260507134554 | 25 | 198 | 3.2 | 12.9 | 0.00 | 0.00 | 0.00 | 78 | 1013.8 |
| 20260507133118 | 24 | 273 | 3.2 | 9.7 | 0.00 | 0.00 | 0.00 | 82 | 1013.9 |
| 20260507131555 | 24 | 229 | 4.8 | 9.7 | 0.00 | 0.00 | 0.00 | 83 | 1014.0 |
| 20260507130110 | 23 | 247 | 1.6 | 11.3 | 0.00 | 0.00 | 0.00 | 85 | 1014.0 |
| 20260507124556 | 23 | 288 | 3.2 | 6.4 | 0.00 | 0.00 | 0.00 | 87 | 1014.0 |
| 20260507123053 | 22 | 0 | 1.6 | 9.7 | 0.00 | 0.00 | 0.00 | 88 | 1014.1 |
| 20260507121606 | 22 | 304 | 3.2 | 11.3 | 0.00 | 0.00 | 0.00 | 87 | 1014.0 |
| 20260507114634 | 21 | 169 | 3.2 | 11.3 | 0.00 | 0.00 | 0.00 | 91 | 1013.4 |
| 20260507113053 | 21 | 197 | 3.2 | 8.0 | 0.00 | 0.00 | 0.00 | 91 | 1013.4 |
| 20260507111558 | 21 | 225 | 0.0 | 6.4 | 0.00 | 0.00 | 0.00 | 91 | 1013.5 |
| 20260507110052 | 21 | 0 | 0.0 | 3.2 | 0.00 | 0.00 | 0.00 | 90 | 1013.5 |
| 20260507104550 | 21 | 0 | 0.0 | 3.2 | 0.00 | 0.00 | 0.00 | 89 | 1013.2 |
| 20260507103053 | 21 | 227 | 0.0 | 3.2 | 0.00 | 0.00 | 0.00 | 89 | 1013.6 |
| 20260507101550 | 21 | 0 | 0.0 | 1.6 | 0.00 | 0.00 | 0.00 | 88 | 1013.5 |
| 20260507100129 | 21 | 0 | 0.0 | 3.2 | 0.00 | 0.00 | 0.00 | 87 | 1013.4 |
| 20260507094559 | 21 | 224 | 0.0 | 4.8 | 0.00 | 0.00 | 0.00 | 86 | 1013.4 |
| 20260507093055 | 21 | 231 | 0.0 | 6.4 | 0.00 | 0.00 | 0.00 | 86 | 1013.3 |
| 20260507091549 | 21 | 234 | 3.2 | 11.3 | 0.00 | 0.00 | 0.00 | 85 | 1013.0 |
| 20260507090049 | 22 | 218 | 3.2 | 12.9 | 0.00 | 0.00 | 0.00 | 84 | 1012.7 |
| 20260507084558 | 22 | 203 | 3.2 | 11.3 | 0.00 | 0.00 | 0.00 | 84 | 1012.2 |
| 20260507083053 | 22 | 215 | 3.2 | 8.0 | 0.00 | 0.00 | 0.00 | 83 | 1012.2 |
| 20260507081558 | 22 | 227 | 3.2 | 11.3 | 0.00 | 0.00 | 0.00 | 83 | 1012.1 |
| 20260507080117 | 22 | 0 | 1.6 | 8.0 | 0.00 | 0.00 | 0.00 | 82 | 1012.1 |
| 20260507074552 | 22 | 0 | 0.0 | 3.2 | 0.00 | 0.00 | 0.00 | 82 | 1012.2 |
| 20260507073057 | 22 | 0 | 0.0 | 3.2 | 0.00 | 0.00 | 0.00 | 81 | 1012.4 |
| 20260507071550 | 22 | 216 | 0.0 | 4.8 | 0.00 | 0.00 | 0.00 | 80 | 1012.9 |
| 20260507070053 | 22 | 225 | 1.6 | 6.4 | 0.00 | 0.00 | 0.00 | 79 | 1013.0 |
| 20260507064554 | 22 | 0 | 0.0 | 6.4 | 0.00 | 0.00 | 0.00 | 79 | 1013.1 |
| 20260507063104 | 22 | 220 | 3.2 | 8.0 | 0.00 | 0.00 | 0.00 | 78 | 1013.5 |
| 20260507061552 | 22 | 224 | 3.2 | 11.3 | 0.00 | 0.00 | 0.00 | 78 | 1013.8 |
| 20260507060055 | 22 | 0 | 3.2 | 8.0 | 0.00 | 0.00 | 0.00 | 77 | 1013.8 |
| 20260507054553 | 22 | 204 | 0.0 | 6.4 | 0.00 | 0.00 | 0.00 | 77 | 1014.0 |
| 20260507053052 | 23 | 190 | 1.6 | 9.7 | 0.00 | 0.00 | 0.00 | 77 | 1014.1 |
| 20260507051552 | 23 | 0 | 0.0 | 9.7 | 0.00 | 0.00 | 0.00 | 77 | 1014.2 |
| 20260507050057 | 23 | 192 | 1.6 | 8.0 | 0.00 | 0.00 | 0.00 | 76 | 1014.2 |
| 20260507044549 | 23 | 175 | 1.6 | 8.0 | 0.00 | 0.00 | 0.00 | 76 | 1014.2 |
| 20260507043053 | 23 | 232 | 0.0 | 6.4 | 0.00 | 0.00 | 0.00 | 76 | 1014.4 |
| 20260507041554 | 23 | 164 | 0.0 | 6.4 | 0.00 | 0.00 | 0.00 | 76 | 1014.4 |
| 20260507040056 | 23 | 0 | 0.0 | 3.2 | 0.00 | 0.00 | 0.00 | 76 | 1014.6 |
| 20260507034556 | 23 | 0 | 0.0 | 3.2 | 0.00 | 0.00 | 0.00 | 75 | 1014.8 |
| 20260507033054 | 23 | 229 | 0.0 | 3.2 | 0.00 | 0.00 | 0.00 | 75 | 1014.5 |
| 20260507031552 | 23 | 0 | 0.0 | 9.7 | 0.00 | 0.00 | 0.00 | 75 | 1014.9 |